Weather History for Kankakee, IL

Change the Weather History Date:

Friday, November 30, 2012

  Actual Average Record
Temperature  
Mean Temperature 44 °F -  
Max Temperature 56 °F 42 °F 62 °F (1991)
Min Temperature 31 °F 26 °F 4 °F (1976)
Degree Days  
Heating Degree Days 22    
Moisture  
Dew Point 34 °F    
Average Humidity 74    
Maximum Humidity 96    
Minimum Humidity 46    
Precipitation  
Precipitation 0.00 in - - ()
Sea Level Pressure  
Sea Level Pressure 30.10 in    
Wind  
Wind Speed 4 mph (South)    
Max Wind Speed 10 mph    
Max Gust Speed -    
Visibility 10 miles    
Events      
Averages and records for this station are not official NWS values.
T = Trace of Precipitation, MM = Missing Value Source: NWS Daily Summary

Daily Weather History Graph

Daily Weather History Graph

Search for Another Location

Airport:

Trip Planner

Search our weather history database for the weather conditions in past years. The results will help you decide how hot, cold, wet, or windy it might be!

Date:

Astronomy

Nov. 30, 2012 Rise Set
Actual Time 6:56 AM CST 4:23 PM CST
Civil Twilight 6:26 AM CST 4:54 PM CST
Nautical Twilight 5:51 AM CST 5:28 PM CST
Astronomical Twilight 5:18 AM CST 6:01 PM CST
Moon 6:18 PM CST (11/30) 8:28 AM CST (11/30)
Length of Visible Light 10h 28m
Length of Day
9h 27m
Waning Gibbous, 96% of the Moon is Illuminated
Nov 30
Waning Gibbous
Dec 6
Last Quarter
Dec 13
New
Dec 19
First Quarter
Dec 28
Full

Hourly Weather History & Observations

Time (CST) Temp. Windchill Dew Point Humidity Pressure Visibility Wind Dir Wind Speed Gust Speed Precip Events Conditions
12:15 AM 33.8 °F - 31.1 °F 90% 30.11 in 10.0 mi Calm Calm - N/A   Clear
12:35 AM 32.9 °F - 30.6 °F 91% 30.10 in 10.0 mi Calm Calm - N/A   Clear
12:55 AM 34.3 °F 31.4 °F 30.9 °F 87% 30.10 in 10.0 mi SSE 3.5 mph - N/A   Clear
1:15 AM 33.3 °F - 30.6 °F 90% 30.10 in 10.0 mi Calm Calm - N/A   Clear
1:35 AM 34.9 °F 30.8 °F 31.5 °F 87% 30.10 in 10.0 mi SSE 4.6 mph - N/A   Clear
1:55 AM 37.6 °F 35.1 °F 31.6 °F 79% 30.10 in 10.0 mi SSE 3.5 mph - N/A   Clear
2:15 AM 37.0 °F 32.4 °F 31.5 °F 80% 30.10 in 10.0 mi SSE 5.8 mph - N/A   Clear
2:35 AM 37.8 °F 32.5 °F 31.8 °F 79% 30.10 in 10.0 mi South 6.9 mph - N/A   Clear
2:55 AM 37.2 °F 31.9 °F 31.6 °F 80% 30.09 in 10.0 mi SSE 6.9 mph - N/A   Scattered Clouds
3:15 AM 37.4 °F 32.1 °F 31.6 °F 80% 30.09 in 10.0 mi South 6.9 mph - N/A   Scattered Clouds
3:35 AM 37.6 °F 31.6 °F 31.6 °F 79% 30.07 in 10.0 mi SSE 8.1 mph - N/A   Clear
3:55 AM 38.3 °F 33.2 °F 32.0 °F 78% 30.07 in 10.0 mi South 6.9 mph - N/A   Scattered Clouds
4:15 AM 38.1 °F 33.7 °F 31.8 °F 78% 30.08 in 10.0 mi South 5.8 mph - N/A   Scattered Clouds
4:35 AM 37.9 °F 35.5 °F 32.0 °F 79% 30.09 in 10.0 mi South 3.5 mph - N/A   Mostly Cloudy
4:55 AM 37.4 °F 32.8 °F 31.8 °F 80% 30.08 in 10.0 mi South 5.8 mph - N/A   Mostly Cloudy
5:15 AM 36.9 °F 32.2 °F 31.6 °F 81% 30.08 in 10.0 mi South 5.8 mph - N/A   Scattered Clouds
5:35 AM 37.4 °F 34.9 °F 31.8 °F 80% 30.08 in 10.0 mi SSE 3.5 mph - N/A   Scattered Clouds
5:55 AM 37.0 °F - 32.0 °F 82% 30.08 in 10.0 mi Calm Calm - N/A   Mostly Cloudy
6:15 AM 34.7 °F 29.6 °F 31.1 °F 87% 30.08 in 10.0 mi SSE 5.8 mph - N/A   Mostly Cloudy
6:35 AM 35.4 °F 30.5 °F 31.5 °F 85% 30.07 in 10.0 mi SSE 5.8 mph - N/A   Scattered Clouds
6:55 AM 35.1 °F - 30.9 °F 85% 30.08 in 10.0 mi Calm Calm - N/A   Clear
7:15 AM 31.8 °F - 29.8 °F 92% 30.08 in 10.0 mi Calm Calm - N/A   Clear
7:35 AM 33.3 °F - 30.9 °F 91% 30.08 in 10.0 mi Calm Calm - N/A   Clear
7:55 AM 32.9 °F - 30.9 °F 92% 30.09 in 10.0 mi Calm Calm - N/A   Clear
8:15 AM 37.6 °F 35.1 °F 32.4 °F 81% 30.09 in 10.0 mi South 3.5 mph - N/A   Clear
8:35 AM 40.5 °F 37.3 °F 33.3 °F 75% 30.09 in 10.0 mi South 4.6 mph - N/A   Clear
8:55 AM 41.5 °F 37.8 °F 33.8 °F 74% 30.10 in 10.0 mi SSW 5.8 mph - N/A   Clear
9:15 AM 44.1 °F 39.5 °F 34.3 °F 69% 30.10 in 10.0 mi SSW 8.1 mph - N/A   Clear
9:35 AM 45.7 °F 42.7 °F 35.2 °F 67% 30.10 in 10.0 mi SW 5.8 mph - N/A   Clear
9:55 AM 47.5 °F - 35.6 °F 63% 30.10 in 10.0 mi SW 8.1 mph - N/A   Clear
10:15 AM 49.5 °F - 36.1 °F 60% 30.10 in 10.0 mi WSW 9.2 mph - N/A   Clear
10:35 AM 50.2 °F - 35.8 °F 58% 30.10 in 10.0 mi WSW 10.4 mph - N/A   Clear
10:55 AM 51.1 °F - 35.8 °F 56% 30.09 in 10.0 mi WSW 6.9 mph - N/A   Clear
11:15 AM 52.3 °F - 35.8 °F 53% 30.08 in 10.0 mi West 8.1 mph - N/A   Clear
11:35 AM 52.9 °F - 35.6 °F 52% 30.08 in 10.0 mi WSW 6.9 mph - N/A   Clear
11:55 AM 53.8 °F - 36.0 °F 51% 30.07 in 10.0 mi WSW 5.8 mph - N/A   Clear
12:15 PM 54.1 °F - 35.8 °F 50% 30.06 in 10.0 mi WSW 8.1 mph - N/A   Clear
12:35 PM 55.4 °F - 36.3 °F 49% 30.06 in 10.0 mi SW 5.8 mph - N/A   Clear
12:55 PM 55.6 °F - 36.1 °F 48% 30.06 in 10.0 mi WSW 6.9 mph - N/A   Clear
1:15 PM 55.8 °F - 36.5 °F 48% 30.06 in 10.0 mi SSW 4.6 mph - N/A   Clear
1:35 PM 56.1 °F - 36.0 °F 47% 30.06 in 10.0 mi SSW 3.5 mph - N/A   Clear
1:55 PM 56.7 °F - 36.1 °F 46% 30.05 in 10.0 mi SSW 4.6 mph - N/A   Clear
2:15 PM 56.5 °F - 36.3 °F 47% 30.05 in 10.0 mi SSW 3.5 mph - N/A   Clear
2:35 PM 56.5 °F - 36.3 °F 47% 30.05 in 10.0 mi WSW 4.6 mph - N/A   Clear
2:55 PM 56.3 °F - 36.9 °F 48% 30.06 in 10.0 mi South 5.8 mph - N/A   Clear
3:15 PM 55.9 °F - 36.9 °F 49% 30.07 in 10.0 mi SSW 4.6 mph - N/A   Clear
3:35 PM 54.9 °F - 37.0 °F 51% 30.07 in 10.0 mi SW 4.6 mph - N/A   Clear
3:55 PM 54.0 °F - 36.0 °F 51% 30.08 in 10.0 mi SW 3.5 mph - N/A   Clear
4:15 PM 53.1 °F - 35.6 °F 52% 30.09 in 10.0 mi Calm Calm - N/A   Clear
4:35 PM 50.9 °F - 35.6 °F 56% 30.10 in 10.0 mi Calm Calm - N/A   Clear
4:55 PM 48.6 °F - 35.6 °F 61% 30.10 in 10.0 mi Calm Calm - N/A   Clear
5:15 PM 45.0 °F - 35.4 °F 69% 30.11 in 10.0 mi Calm Calm - N/A   Clear
5:35 PM 45.5 °F - 35.4 °F 68% 30.12 in 10.0 mi Calm Calm - N/A   Clear
5:55 PM 42.1 °F 40.2 °F 34.5 °F 75% 30.13 in 10.0 mi NE 3.5 mph - N/A   Clear
6:15 PM 41.9 °F 40.0 °F 34.7 °F 76% 30.13 in 10.0 mi NE 3.5 mph - N/A   Clear
6:35 PM 43.0 °F 38.2 °F 34.9 °F 73% 30.14 in 10.0 mi NNE 8.1 mph - N/A   Clear
6:55 PM 42.8 °F 37.5 °F 35.6 °F 76% 30.14 in 10.0 mi NE 9.2 mph - N/A   Clear
7:15 PM 41.4 °F 37.6 °F 35.8 °F 81% 30.14 in 10.0 mi NE 5.8 mph - N/A   Clear
7:35 PM 39.9 °F - 35.2 °F 83% 30.13 in 10.0 mi Calm Calm - N/A   Clear
7:55 PM 39.2 °F 37.0 °F 35.1 °F 85% 30.13 in 10.0 mi NE 3.5 mph - N/A   Clear
8:15 PM 39.4 °F 36.1 °F 35.1 °F 84% 30.13 in 10.0 mi NE 4.6 mph - N/A   Clear
8:35 PM 38.8 °F 34.6 °F 34.7 °F 85% 30.13 in 10.0 mi ENE 5.8 mph - N/A   Clear
8:55 PM 38.3 °F 33.9 °F 34.2 °F 85% 30.13 in 10.0 mi East 5.8 mph - N/A   Clear
9:15 PM 36.5 °F 33.9 °F 33.6 °F 89% 30.13 in 10.0 mi NE 3.5 mph - N/A   Clear
9:35 PM 36.1 °F 33.5 °F 33.8 °F 91% 30.13 in 10.0 mi NNE 3.5 mph - N/A   Clear
9:55 PM 35.6 °F - 33.8 °F 93% 30.12 in 10.0 mi Calm Calm - N/A   Clear
10:15 PM 35.1 °F 32.2 °F 33.4 °F 94% 30.13 in 10.0 mi NNE 3.5 mph - N/A   Clear
10:35 PM 36.5 °F 32.7 °F 34.0 °F 91% 30.12 in 10.0 mi East 4.6 mph - N/A   Clear
10:55 PM 35.6 °F 32.8 °F 33.8 °F 93% 30.12 in 10.0 mi East 3.5 mph - N/A   Clear
11:15 PM 34.0 °F - 32.2 °F 93% 30.13 in 10.0 mi Calm Calm - N/A   Clear
11:35 PM 33.8 °F - 32.7 °F 96% 30.12 in 10.0 mi Calm Calm - N/A   Clear
11:55 PM 34.5 °F 31.6 °F 32.4 °F 92% 30.13 in 10.0 mi East 3.5 mph - N/A   Clear